Weather reports worldwide

Advertisment
Antwerpen, Belgium (6450): temperature & dewpoint: 13.11.2019 19:00:00 - 19.11.2019 19:00:00 (CET)Antwerpen, Belgium (6450): wind speed & gusts: 13.11.2019 19:00:00 - 19.11.2019 19:00:00 (CET)Antwerpen, Belgium (6450): wind direction: 13.11.2019 19:00:00 - 19.11.2019 19:00:00 (CET)Antwerpen, Belgium (6450): reduced air pressure: 13.11.2019 19:00:00 - 19.11.2019 19:00:00 (CET)Antwerpen, Belgium (6450): visibility: 13.11.2019 19:00:00 - 19.11.2019 19:00:00 (CET)
Date & Time tt [°C] td [°C] ff [km/h] ff [kn] fx [km/h] fx [kn] dd ppp [hPa] vv [km]
19.11.2019 19:00:00 5,2 0,8 8 4 - - SW 1018,9 10
19.11.2019 18:00:00 6,3 0,9 8 4 14 8 SW 1018,7 10
19.11.2019 17:00:00 7,2 0,9 8 4 18 10 SW 1018,4 10
19.11.2019 16:00:00 7,5 0,3 13 7 - - W 1018,0 10
19.11.2019 15:00:00 8,3 1,6 16 9 29 16 W 1017,8 10
19.11.2019 14:00:00 8,1 2,1 15 8 22 12 WSW 1017,8 10
19.11.2019 13:00:00 7,3 2,6 16 9 - - SW 1017,9 10
19.11.2019 12:00:00 7,2 2,6 11 6 22 12 WSW 1018,0 10
19.11.2019 11:00:00 6,4 2,9 9 5 18 10 W 1017,6 10
19.11.2019 10:00:00 5,3 2,3 13 7 - - WSW 1017,0 10
19.11.2019 09:00:00 4,1 2,4 9 5 22 12 WSW 1016,4 10
19.11.2019 08:00:00 4,3 2,4 15 8 22 12 WSW 1016,2 10
19.11.2019 07:00:00 4,7 2,6 11 6 - - WSW 1015,7 35
19.11.2019 06:00:00 4,6 2,2 9 5 36 19 SW 1015,3 10
19.11.2019 05:00:00 5,4 2,3 22 12 36 19 W 1014,6 10
19.11.2019 04:00:00 5,1 2,5 15 8 - - WSW 1014,6 10
19.11.2019 03:00:00 5,6 1,7 14 8 22 12 WSW 1014,5 45
19.11.2019 02:00:00 6,2 1,9 13 7 22 12 W 1014,1 10
19.11.2019 01:00:00 6,1 2,4 13 7 - - W 1014,0 10
19.11.2019 00:00:00 7,1 2,4 13 7 29 16 W 1013,5 10
18.11.2019 23:00:00 7,8 3,4 11 6 32 18 NNW 1013,0 10
18.11.2019 22:00:00 8,1 4,1 21 11 - - NNW 1012,4 10
18.11.2019 21:00:00 8,7 4,4 21 11 32 18 NW 1011,5 10
18.11.2019 20:00:00 8,2 6,1 22 12 36 19 NW 1010,8 10
18.11.2019 19:00:00 8,1 6,7 22 12 - - NNW 1010,3 4,5
18.11.2019 18:00:00 8,3 6,8 26 14 47 25 NW 1009,6 9
18.11.2019 17:00:00 7,4 6,1 13 7 18 10 NW 1009,6 3,5
18.11.2019 16:00:00 5,9 5,0 4 2 - - - 1009,4 2,0
18.11.2019 15:00:00 5,5 4,5 9 5 11 6 SSW 1009,3 3,0
18.11.2019 14:00:00 5,6 4,2 8 4 18 10 SSW 1009,3 4,1
18.11.2019 13:00:00 5,7 3,7 11 6 - - W 1009,5 7
18.11.2019 12:00:00 5,8 3,4 13 7 25 14 WNW 1009,8 7
18.11.2019 11:00:00 5,9 3,3 15 8 18 10 WNW 1009,9 9
18.11.2019 10:00:00 5,6 3,2 13 7 - - WNW 1009,8 10
18.11.2019 09:00:00 5,8 2,6 13 7 22 12 NNW 1010,0 10
18.11.2019 08:00:00 5,7 2,6 13 7 22 12 NNW 1009,8 10
18.11.2019 07:00:00 5,5 2,8 11 6 - - NNW 1009,2 10
18.11.2019 06:00:00 4,8 2,6 9 5 18 10 NNW 1009,0 10
18.11.2019 05:00:00 4,5 2,9 9 5 14 8 NNW 1009,4 9
18.11.2019 04:00:00 4,7 2,6 8 4 - - N 1009,8 9
18.11.2019 03:00:00 4,7 2,4 8 4 11 6 NNW 1009,8 10
18.11.2019 02:00:00 4,6 2,3 8 4 11 6 N 1009,9 10
18.11.2019 01:00:00 4,5 2,4 9 5 - - N 1009,8 10
18.11.2019 00:00:00 4,6 2,4 9 5 18 10 N 1009,8 10
17.11.2019 23:00:00 4,9 2,7 13 7 18 10 N 1010,0 10
17.11.2019 22:00:00 4,9 2,7 9 5 - - N 1010,4 10
17.11.2019 21:00:00 5,0 3,4 11 6 18 10 N 1010,4 10
17.11.2019 20:00:00 5,2 3,3 9 5 14 8 N 1010,8 10
17.11.2019 19:00:00 5,6 2,9 7 4 - - N 1010,6 20
17.11.2019 18:00:00 6,1 3,4 9 5 14 8 N 1011,0 10
17.11.2019 17:00:00 6,5 3,8 9 5 14 8 N 1010,8 10
17.11.2019 16:00:00 7,1 3,1 8 4 - - N 1011,2 10
17.11.2019 15:00:00 7,8 2,5 13 7 14 8 ENE 1011,5 10
17.11.2019 14:00:00 8,4 2,8 8 4 11 6 N 1011,2 10
17.11.2019 13:00:00 7,9 3,3 5 3 - - NE 1011,4 10
17.11.2019 12:00:00 6,6 3,3 5 3 11 6 NE 1011,7 10
17.11.2019 11:00:00 4,4 2,5 4 2 7 4 - 1012,3 10
17.11.2019 10:00:00 3,0 2,1 2 1 - - - 1012,2 10
17.11.2019 09:00:00 -0,1 -0,3 4 2 7 4 E 1012,4 2,5
17.11.2019 08:00:00 -0,2 -0,9 4 2 4 2 ESE 1012,1 0,8
17.11.2019 07:00:00 -1,0 -1,5 4 2 - - ESE 1011,5 0,9
17.11.2019 06:00:00 -1,8 -1,9 2 1 4 2 - 1011,0 0,4
17.11.2019 05:00:00 0,4 -0,4 2 1 4 2 NE 1011,2 0,5
17.11.2019 04:00:00 1,3 0,6 2 1 - - ESE 1011,3 3,0
17.11.2019 03:00:00 1,7 1,3 4 2 4 2 ESE 1011,4 4,8
17.11.2019 02:00:00 2,6 1,7 5 3 11 6 SSE 1011,3 10
17.11.2019 01:00:00 5,2 2,9 8 4 - - SSE 1011,4 10
17.11.2019 00:00:00 5,4 2,9 8 4 11 6 SE 1010,9 10
16.11.2019 23:00:00 5,8 3,0 8 4 11 6 SSE 1011,0 10
16.11.2019 22:00:00 6,2 2,8 4 2 - - S 1011,0 10
16.11.2019 21:00:00 6,1 2,8 8 4 11 6 S 1010,9 10
16.11.2019 20:00:00 6,3 2,8 5 3 7 4 SSW 1010,7 10
16.11.2019 19:00:00 5,1 2,4 2 1 - - SSE 1010,0 10
16.11.2019 18:00:00 4,2 2,2 0 0 11 6 N 1009,4 10
16.11.2019 17:00:00 5,8 2,3 8 4 18 10 S 1009,0 10
16.11.2019 16:00:00 7,1 2,1 11 6 - - SSE 1008,2 10
16.11.2019 15:00:00 7,6 2,2 11 6 18 10 S 1007,9 10
16.11.2019 14:00:00 7,5 2,3 13 7 22 12 S 1008,1 10
16.11.2019 13:00:00 7,6 1,7 13 7 - - S 1008,0 10
16.11.2019 12:00:00 6,4 2,0 11 6 18 10 S 1008,2 10
16.11.2019 11:00:00 4,8 1,8 5 3 14 8 SSE 1008,1 10
16.11.2019 10:00:00 2,0 0,0 8 4 - - SSE 1007,9 10
16.11.2019 09:00:00 0,1 -1,0 2 1 11 6 - 1007,6 10
16.11.2019 08:00:00 -0,8 -2,0 4 2 4 2 - 1006,9 10
16.11.2019 07:00:00 -0,4 -1,0 0 0 - - N 1006,1 10
16.11.2019 06:00:00 1,2 -0,3 4 2 7 4 E 1005,7 10
16.11.2019 05:00:00 0,6 -0,7 4 2 11 6 - 1005,5 10
16.11.2019 04:00:00 0,4 -0,5 8 4 - - SE 1005,4 10
16.11.2019 03:00:00 1,3 0,0 8 4 11 6 E 1005,6 10
16.11.2019 02:00:00 0,9 -0,4 8 4 11 6 E 1005,2 10
16.11.2019 01:00:00 1,9 0,2 9 5 - - E 1005,0 10
16.11.2019 00:00:00 2,2 0,5 4 2 11 6 ESE 1004,7 10
15.11.2019 23:00:00 3,1 0,7 5 3 11 6 E 1004,2 10
15.11.2019 22:00:00 3,3 0,4 5 3 - - SE 1003,4 10
15.11.2019 21:00:00 6,1 1,1 22 12 40 21 S 1003,2 10
15.11.2019 20:00:00 5,7 2,3 9 5 14 8 SE 1002,7 10
15.11.2019 19:00:00 5,4 2,8 9 5 - - SE 1001,8 9
15.11.2019 18:00:00 4,9 2,6 11 6 18 10 ESE 1001,3 8
15.11.2019 17:00:00 5,0 2,6 13 7 22 12 E 1000,8 7
15.11.2019 16:00:00 4,9 2,3 15 8 - - ESE 1000,0 8
15.11.2019 15:00:00 4,8 2,0 13 7 22 12 E 999,9 9
15.11.2019 14:00:00 4,6 1,9 13 7 25 14 E 999,9 7
15.11.2019 13:00:00 4,6 1,6 21 11 - - ENE 999,8 8
15.11.2019 12:00:00 4,1 1,4 16 9 29 16 NE 999,8 8
15.11.2019 11:00:00 3,6 1,4 15 8 25 14 NE 1000,2 7
15.11.2019 10:00:00 3,3 1,1 9 5 - - NNE 1000,7 6
15.11.2019 09:00:00 3,2 1,5 16 9 29 16 NE 1000,1 6
15.11.2019 08:00:00 3,0 1,3 15 8 25 14 NE 999,3 7
15.11.2019 07:00:00 2,9 1,4 15 8 - - NE 999,6 10
15.11.2019 06:00:00 3,1 1,5 13 7 22 12 NE 1000,0 8
15.11.2019 05:00:00 3,4 2,0 13 7 18 10 NNE 1000,7 10
15.11.2019 04:00:00 4,0 2,7 9 5 - - NE 1001,2 10
15.11.2019 03:00:00 4,5 2,9 11 6 14 8 N 1001,6 10
15.11.2019 02:00:00 4,8 3,0 11 6 14 8 NNE 1002,2 10
15.11.2019 01:00:00 5,0 3,0 9 5 - - N 1002,5 10
15.11.2019 00:00:00 4,8 2,4 4 2 7 4 N 1003,0 10
14.11.2019 23:00:00 5,0 3,1 5 3 11 6 NE 1003,1 10
14.11.2019 22:00:00 4,9 3,0 8 4 - - ENE 1003,1 10
14.11.2019 21:00:00 5,3 3,5 8 4 7 4 ENE 1003,7 10
14.11.2019 20:00:00 4,8 3,2 5 3 11 6 E 1003,5 10
14.11.2019 19:00:00 4,4 3,2 9 5 - - E 1002,7 10
14.11.2019 18:00:00 4,6 3,3 8 4 14 8 ESE 1002,7 10
14.11.2019 17:00:00 5,3 3,0 9 5 18 10 SE 1001,9 10
14.11.2019 16:00:00 6,9 2,7 15 8 - - SSE 1001,5 10
14.11.2019 15:00:00 7,3 2,8 15 8 25 14 SSE 1001,0 10
14.11.2019 14:00:00 7,4 3,1 15 8 29 16 SSE 1000,5 10
14.11.2019 13:00:00 6,6 3,5 18 10 - - S 1000,5 10
14.11.2019 12:00:00 5,9 3,7 22 12 36 19 SSE 1000,4 10
14.11.2019 11:00:00 6,0 3,8 24 13 40 21 SSE 999,8 7
14.11.2019 10:00:00 6,3 3,0 18 10 - - SE 998,8 10
14.11.2019 09:00:00 5,6 3,4 16 9 29 16 ESE 998,4 10
14.11.2019 08:00:00 5,4 3,6 18 10 29 16 ESE 997,7 10
14.11.2019 07:00:00 5,3 3,3 21 11 - - ESE 996,9 10
14.11.2019 06:00:00 5,0 3,4 21 11 29 16 ESE 996,6 10
14.11.2019 05:00:00 4,7 3,3 18 10 32 18 ESE 996,6 10
14.11.2019 04:00:00 4,0 2,8 15 8 - - ESE 997,2 10
14.11.2019 03:00:00 3,6 2,6 11 6 22 12 SE 997,8 10
14.11.2019 02:00:00 3,7 2,8 11 6 14 8 SE 998,3 10
14.11.2019 01:00:00 3,5 2,5 11 6 - - SE 998,6 9
14.11.2019 00:00:00 4,5 3,5 13 7 18 10 SE 998,8 10
13.11.2019 23:00:00 5,7 4,3 13 7 18 10 SSE 999,3 10
13.11.2019 22:00:00 5,9 4,6 13 7 - - SSE 999,9 10
13.11.2019 21:00:00 6,1 4,5 13 7 18 10 SSE 1000,1 10
13.11.2019 20:00:00 6,7 3,7 11 6 29 16 S 1000,4 10
13.11.2019 19:00:00 7,4 5,0 11 6 - - S 1000,8 10

tt = temperature
td = dewpoint
ff = wind speed
fx = gusts
dd = wind direction
ppp = reduced air pressure
vv = visibility

Next stations